Find KUIPER-00453

NORAD ID: 68947 Int'l Des: 2026-098AE Owner: KUIP Country: US Constellation: amazon-leo operational
LEOCIRCULAR

实时位置

正在加载3D地球...

关于 KUIPER-00453

正在加载描述...

即将过境

Passes for default location (London). Set your location on the main map for personalized predictions.

高度历史

Loading altitude history...

两行轨道根数

1 68947U 26098AE 26125.83336806 .00057748 00000-0 16285-2 0 9997
2 68947 51.8750 271.7347 0003042 56.6526 263.8388 15.35850550 1558
Epoch: May 5, 2026 • Age: 6 hours

当前状态

高度 461.9 km
速度 7.64 km/s
星下点 -8.13°S, 152.18°W
发射日期 Apr 30, 2026
运行时间 6 days
类型 internet

技术详情

分类 Payload
质量 490.00 kg
干质量 490.00 kg
总质量 490.00 kg
长度 1.80 m
直径 0.70 m
跨度 5.00 m
形状 Box + 2 pan
制造商 KUIP
平台类型 Kuiper
阶段状态 In Orbit
所有者/国家 KUIP/US

Most Searched